RH
15 14 14 18 29 40 49 54 57 64 66 61 59 55 55 54 55 58 58 60 57 56 57 41 45 49 41 42 47 44 52 49 46 45 59 64 65 70 78 78 71 69 63
11 15 16 22 36 42 51 53 54 57 64 58 55 52 50 52 59 69 65 60 61 58 54 50 47 52 42 51 55 53 44 48 51 50 57 70 63 59 65 71 74 73 66
14 13 16 22 36 43 51 51 52 54 58 58 51 51 52 65 75 80 73 60 61 60 57 54 48 53 48 49 59 60 51 49 53 54 48 55 53 59 60 69 66 72 70
17 14 14 18 34 42 46 51 51 50 55 56 51 58 54 67 66 71 74 58 62 61 58 54 54 56 52 53 58 55 54 51 55 55 47 48 44 55 63 64 70 70 69
18 17 14 14 19 38 44 52 52 52 54 58 53 54 58 55 52 55 67 71 60 63 58 59 60 60 55 58 61 62 64 52 49 52 53 57 53 51 46 59 70 69 67
16 17 16 14 14 30 47 51 53 53 54 59 62 63 66 56 52 56 58 62 58 61 64 61 63 64 61 61 60 64 65 59 55 46 49 51 55 57 50 51 63 66 65
19 16 16 15 16 17 37 51 53 53 55 62 64 65 67 65 61 56 57 59 61 61 67 66 68 64 64 60 59 65 66 67 60 63 50 47 49 47 49 48 56 58 57
19 17 16 17 16 19 21 50 50 51 52 61 66 68 68 59 55 54 50 53 56 58 64 68 66 65 62 62 63 61 63 67 69 68 63 50 49 48 50 51 59 64 59
17 19 16 17 18 18 24 46 51 48 49 59 67 68 70 66 59 60 60 55 56 52 62 67 70 68 66 64 66 64 67 67 72 73 72 60 54 54 53 52 55 58 68
30 21 20 19 17 18 17 34 52 47 52 62 66 66 67 66 61 62 62 61 58 56 56 65 69 67 67 66 68 66 66 68 68 66 70 68 59 58 60 62 58 57 57
44 35 22 19 17 18 19 28 48 46 54 63 67 69 67 65 63 61 62 61 61 56 57 59 65 67 67 67 68 68 65 68 69 69 68 71 67 64 65 73 67 62 59
42 32 30 34 26 20 20 22 33 48 49 58 64 68 66 64 66 65 61 64 64 63 61 60 61 63 64 66 69 71 66 68 71 70 70 68 67 75 77 78 75 74 75
47 44 45 43 39 40 39 27 26 31 41 46 57 65 68 65 67 67 66 62 64 64 62 62 65 66 69 68 71 70 72 70 70 69 70 70 74 83 85 79 80 83 78
55 48 48 49 48 50 49 52 50 40 35 38 48 60 65 65 67 69 68 70 68 67 65 67 67 70 67 67 70 71 78 77 76 77 73 73 74 82 86 90 87 88 89
77 56 48 50 50 54 56 61 65 65 56 44 43 59 65 65 65 70 71 69 69 67 66 69 72 70 73 71 74 76 81 81 83 85 78 83 82 93 92 92 93 91 90
83 77 62 51 46 45 47 53 61 78 82 70 49 49 57 63 71 69 72 74 72 66 67 71 73 79 77 96 100 91 87 83 86 92 91 88 99 98 100 100 96 87 88
89 84 83 67 50 46 46 55 63 79 86 85 76 62 55 59 70 72 70 74 75 72 71 75 77 81 80 100 100 100 84 86 89 92 95 99 98 99 97 100 100 97 90
83 83 84 82 69 56 45 52 59 67 77 89 92 84 69 54 57 69 75 74 76 78 80 82 80 84 82 100 100 100 89 88 91 92 94 95 98 94 95 97 98 96 96
74 80 85 84 79 74 64 55 58 64 69 76 83 92 92 89 59 58 69 73 76 80 82 82 79 88 87 100 100 100 95 97 97 94 92 92 95 98 97 96 98 98 100
56 68 73 83 84 83 75 65 63 66 71 75 76 79 92 95 93 74 63 70 73 76 87 83 80 87 86 100 100 100 97 98 98 98 96 100 93 100 99 93 95 96 96
31 32 60 68 72 74 75 78 63 68 70 70 70 72 83 96 96 93 90 68 72 80 89 87 85 82 90 98 100 100 98 98 99 99 99 98 100 98 97 92 85 87 82
30 28 32 38 42 59 59 71 76 63 69 75 69 70 74 90 96 96 96 97 84 91 94 97 100 99 99 100 100 100 100 100 98 99 99 100 99 98 97 98 94 90 85
32 30 29 30 34 38 42 45 58 62 71 72 81 80 76 80 95 97 97 99 99 100 99 99 100 100 100 100 100 100 100 100 100 100 100 99 98 98 98 95 88 85 84
36 37 35 37 39 39 38 42 43 47 59 75 82 80 90 90 91 96 98 99 99 100 100 100 100 100 100 100 100 100 100 99 99 99 100 99 99 98 97 94 91 86 83
40 40 43 46 44 42 43 41 46 50 51 60 77 88 84 93 92 99 99 99 100 100 100 100 100 100 100 100 100 99 100 100 99 100 100 100 100 99 99 98 97 94 96
46 47 47 47 46 44 44 44 47 52 59 60 67 82 90 87 96 99 99 100 100 100 100 100 100 100 100 100 100 99 99 98 98 100 100 100 100 100 100 100 100 95 94
Wind_Speed
16 18 18 19 20 21 24 26 26 25 17 16 16 16 15 14 13 13 16 17 16 18 17 12 13 13 12 12 12 11 12 9 10 9 7 5 6 5 4 4 3 5 4
23 16 16 17 20 22 25 26 27 26 21 17 16 15 14 14 12 11 16 17 18 19 17 16 14 15 12 14 14 14 11 10 11 10 11 8 5 5 5 5 5 4 6
24 22 17 17 19 22 24 24 26 27 24 23 15 14 12 8 10 12 14 18 19 19 20 19 14 15 13 13 14 15 16 13 12 15 8 8 7 10 6 6 5 4 6
26 25 22 17 20 20 21 24 24 25 23 25 20 23 18 17 15 13 12 16 20 21 20 20 17 15 13 14 15 14 14 13 14 13 12 6 2 8 6 7 5 5 6
28 26 24 22 17 19 20 21 24 25 24 24 22 19 19 15 14 14 18 19 18 21 22 20 19 17 14 15 15 16 17 13 13 13 13 12 8 6 6 8 7 4 4
30 29 23 22 21 17 20 20 23 25 25 25 24 23 23 19 16 16 15 14 15 15 21 21 18 17 16 16 15 16 18 15 14 13 14 13 13 10 7 6 12 9 6
22 26 28 23 21 22 22 20 24 25 26 25 25 24 23 23 21 18 15 17 14 14 19 21 19 16 18 17 16 16 16 17 15 16 13 12 13 12 11 8 11 6 7
19 26 25 24 23 20 21 23 24 24 25 25 25 23 23 16 16 19 15 14 14 16 18 20 19 21 20 18 17 13 14 16 15 19 16 12 12 12 10 10 11 8 5
22 22 25 23 23 22 20 21 25 25 24 25 22 22 20 22 20 21 18 14 16 15 17 20 21 21 21 20 19 15 16 15 16 17 17 15 12 11 12 12 12 9 9
20 20 21 24 20 20 21 20 23 24 24 24 21 20 22 22 20 18 19 20 18 19 18 19 20 21 21 21 21 17 17 18 14 14 18 17 13 14 12 11 11 10 9
19 21 20 21 20 20 19 17 20 24 21 21 22 21 21 22 20 19 20 20 19 19 19 20 20 20 21 21 20 20 18 20 19 18 19 20 19 13 13 10 11 11 10
17 13 1 8 12 15 16 19 18 20 20 22 22 23 22 20 21 21 21 20 20 19 19 19 20 20 21 20 21 21 19 21 21 20 20 20 14 17 14 11 14 12 9
14 8 6 6 5 4 8 11 15 18 20 21 20 20 20 20 21 22 21 19 19 20 20 20 20 21 21 20 21 20 19 19 20 20 20 20 18 17 13 14 13 10 8
11 9 8 8 6 5 4 3 5 9 14 18 19 19 20 21 21 20 19 19 19 19 20 21 20 19 19 20 20 20 18 19 17 17 19 18 19 19 17 14 15 11 10
18 12 11 12 11 9 8 7 4 2 6 12 17 18 18 18 18 17 18 18 19 19 20 19 19 19 17 15 20 19 20 19 15 15 17 16 18 17 16 13 13 15 13
17 19 14 12 14 14 12 10 10 8 5 6 12 14 16 18 18 17 17 16 18 20 19 19 19 18 13 16 17 17 17 18 17 16 16 15 12 13 17 16 20 21 19
13 18 18 16 15 15 14 15 13 12 11 7 4 8 12 16 16 16 16 18 18 17 19 17 17 18 17 15 19 19 17 17 17 16 14 8 7 12 12 8 11 13 16
8 8 13 16 18 16 14 13 13 14 13 12 10 10 7 13 15 16 17 18 16 17 16 15 15 15 14 18 20 22 19 15 16 15 15 14 13 14 15 14 12 11 8
3 2 5 10 13 18 15 12 15 14 15 16 15 12 10 10 13 17 16 15 15 14 15 12 18 15 14 17 20 18 18 12 13 13 15 15 16 19 23 18 16 12 5
9 6 3 4 8 11 14 14 14 15 15 15 14 13 11 10 10 12 14 13 13 14 10 13 16 17 16 16 20 21 12 12 10 11 13 17 18 26 26 19 19 17 13
13 15 5 6 6 5 9 13 13 14 13 13 13 14 13 11 10 10 9 12 13 12 12 13 13 16 15 11 21 25 13 12 9 8 8 9 15 28 27 20 18 17 19
16 16 10 9 10 7 6 8 12 13 11 13 14 15 13 10 9 10 8 8 9 11 12 12 5 3 7 13 18 21 17 15 12 10 7 7 20 24 20 12 16 27 19
13 12 12 11 11 11 12 13 8 12 11 11 13 13 15 11 9 9 8 6 6 5 7 8 7 3 1 3 11 9 8 14 8 7 9 18 23 20 12 19 26 19 12
11 12 13 12 11 12 13 12 14 15 12 11 10 12 12 13 9 6 7 5 5 4 2 3 6 4 3 5 6 7 10 15 12 15 12 13 13 11 15 16 14 9 10
12 12 12 13 14 14 13 13 13 14 13 11 7 8 10 10 10 3 3 5 3 4 1 1 4 7 7 5 8 12 10 9 11 15 10 11 10 11 10 11 10 10 11
11 11 12 13 15 15 15 14 13 14 13 12 8 5 6 8 7 5 5 1 4 8 6 5 6 3 9 14 12 12 16 24 23 9 11 10 11 12 12 12 12 10 14
Wind_Direction
256 247 239 222 210 199 200 198 192 190 190 194 194 198 202 200 201 201 203 198 200 193 198 201 192 196 202 200 191 192 188 198 193 179 138 137 133 123 90 76 70 133 146
250 245 241 217 204 202 201 198 198 190 190 195 196 201 198 203 200 201 208 205 203 199 195 203 192 194 200 200 195 197 190 200 191 196 178 170 155 122 106 120 117 143 140
253 244 237 227 208 207 198 202 200 194 191 198 195 199 201 193 200 198 210 211 206 206 202 200 201 193 203 197 198 201 199 196 193 218 199 193 209 147 134 93 86 86 97
249 252 243 219 209 211 201 206 203 199 196 195 195 199 198 198 203 205 208 218 209 209 206 201 203 199 200 201 197 200 204 206 196 203 219 241 180 201 162 122 97 102 114
246 247 240 236 224 203 208 204 204 203 197 195 203 196 206 204 204 207 203 213 209 212 208 206 199 203 204 203 199 199 205 206 208 201 206 202 201 207 169 164 150 113 123
239 248 247 243 234 209 205 204 208 202 201 199 202 199 202 205 204 202 202 201 210 205 210 207 204 203 204 204 202 202 203 213 214 211 213 211 208 195 191 163 161 153 157
259 244 241 242 230 226 200 205 205 206 202 200 199 202 203 203 204 200 201 198 201 204 206 205 207 201 205 204 205 205 207 208 213 217 212 213 215 222 208 183 158 154 151
249 254 242 239 238 227 227 201 205 210 203 201 203 203 203 203 208 206 200 206 205 206 202 203 205 209 205 206 205 208 210 208 214 215 217 215 220 214 204 186 164 159 163
258 249 252 236 239 232 218 201 208 209 206 203 201 204 203 208 207 210 208 206 209 209 205 203 206 205 205 204 202 207 207 210 211 215 214 222 214 215 199 209 193 176 178
296 255 251 252 234 233 225 218 204 208 205 199 200 204 204 206 211 206 208 210 211 209 205 205 205 206 205 206 203 206 208 207 208 211 213 214 218 212 210 207 204 201 194
303 278 246 250 245 235 229 223 205 211 204 197 199 204 206 207 208 212 210 211 212 209 211 207 205 206 205 204 208 210 206 211 208 210 213 213 210 211 209 197 204 198 194
320 302 312 310 271 250 236 222 222 211 206 202 198 204 207 204 210 215 215 212 212 211 210 209 210 209 209 206 209 209 206 210 209 208 210 216 209 211 206 198 198 197 194
339 351 34 33 46 309 261 241 228 229 219 208 203 209 210 205 212 217 217 214 215 214 212 211 212 209 206 205 208 210 208 212 211 208 209 210 204 202 199 201 199 190 172
341 9 26 26 34 49 333 283 220 250 245 223 212 211 212 207 208 212 215 216 214 214 214 212 213 214 211 208 208 207 206 210 215 213 214 210 207 201 198 198 196 176 161
341 9 23 37 30 34 32 17 14 297 245 242 227 216 216 217 216 212 210 213 215 215 216 215 213 213 213 211 208 203 205 206 207 211 212 210 212 191 192 182 180 174 167
351 351 351 23 25 30 30 27 15 6 347 275 244 242 220 219 218 220 216 214 217 217 217 218 212 211 210 201 193 198 203 202 204 204 206 203 182 182 177 188 178 178 168
8 355 352 355 14 15 32 33 19 19 23 11 286 252 260 231 218 218 219 220 218 217 219 215 213 211 211 181 185 192 202 204 205 201 192 170 171 159 172 144 169 179 185
349 21 8 3 350 356 10 31 25 21 28 21 10 0 302 255 241 221 218 219 217 216 214 210 210 210 213 177 186 190 208 210 203 191 180 174 162 172 161 154 159 165 164
341 24 62 33 12 352 345 17 24 20 22 19 11 358 354 328 260 240 223 219 216 214 215 203 205 203 212 182 186 184 204 199 189 178 179 174 173 166 159 158 155 147 123
19 348 88 97 28 6 344 349 16 16 15 7 357 356 354 347 333 290 240 225 218 213 200 210 209 209 208 177 180 187 197 192 181 180 180 178 178 166 165 163 164 167 165
7 7 8 22 39 48 9 355 354 15 3 357 355 355 1 346 337 332 327 246 224 206 200 207 208 210 206 182 186 189 188 189 175 172 174 183 165 166 172 170 177 175 148
353 358 6 25 17 353 357 32 344 341 3 353 0 355 352 352 343 350 347 347 266 205 205 200 177 213 179 176 192 190 183 165 167 175 173 161 155 164 167 164 135 139 140
343 342 342 357 3 3 360 5 354 341 350 5 350 345 342 350 359 351 359 354 358 319 185 179 180 171 78 114 153 151 178 158 149 146 153 150 153 148 121 134 135 144 142
344 342 343 348 344 350 353 352 348 345 344 352 353 340 340 334 358 355 347 356 345 357 357 268 160 141 124 132 145 125 107 99 97 102 117 123 123 121 125 130 140 142 142
346 348 344 342 348 349 349 343 354 339 340 331 335 348 335 324 323 343 351 335 345 320 309 299 302 162 165 184 158 156 147 134 134 117 119 128 132 138 144 155 156 148 146
343 343 345 346 342 346 344 345 349 345 333 325 327 339 322 321 310 312 342 57 9 332 316 72 287 250 127 111 112 116 124 132 136 123 148 155 159 163 164 166 161 166 158